THOR ABLESTAR DEB, 3932

Orbit data source: Space-Track

THOR ABLESTAR DEB, 3932 is space debris in LEO originally from a launch on Thu, 29 Jun 1961 UTC launched from the Air Force Eastern Test Range (AFETR). Debris objects in space refer to the collection of defunct objects orbiting the Earth. Examples of debris include non-operational satellites, rocket bodies, and fragments generated from explosions, collisions, or faulty payload assembly.

Loading next visibility...
Identifier
3932, 1961-015JG
Orbit
LEO
Country
Flag of USUS
Related business
Manufacturer
Unknown
Mission
Spacecraft
Bus & Motor
Unknown
Mass
Unknown
Launch date (UTC)
1961-06-29 (65 years ago)
Launch vehicle
Unknown
Launch site
Air Force Eastern Test Range (AFETR)
Object type
Payload
Rocket body
Debris
Shape & HBR
Unknown shape, 0.1 m
Radar Cross Section
Medium (>0.1 m² and <1 m²)

Expand to show TLE details & history
Last TLE update: 3 days ago

TLE from 3 days ago
0 THOR ABLESTAR DEB
1  3932U 61015JG  26171.43699971  .00000114  00000-0  34167-3 0  9995
2  3932  65.7996  60.7443 0274962 114.2078  57.4869 13.25993145152232
Epoch: 2026-06-20T10:29Z
TLE epoch observation values (Epoch: 2026-06-20T10:29:16.774Z)
Latitude
5.04037°
Longitude
172.51278°
Altitude
1,056.037 km
Speed
7.377 km/s
True Right ascension
15h 53m 56s
True Declination
5° 00' 42"
Sunlit
Object was in full shadow at epoch
Visualization orbit readout
Latitude
Unknown
Longitude
Unknown
Altitude
Unknown
Speed
Unknown
Apparent Right ascension
Unknown
Apparent Declination
Unknown
Sunlit
N/A
Visualization observer readout
Local Sidereal Time
12:27:26
Azimuth
Unknown
Elevation
Unknown
Doppler factor
Unknown
Orbital elements
Apogee altitude
1,367.753 km
Perigee altitude
953.187 km
Semi-major axis
7,538.607 km
Eccentricity
0.0275
Inclination
65.7996°
RAAN
60.7443°
Arg. of periapsis
114.2078°
True anomaly
60.19286°
Mean anomaly
57.4869°
Eccentric anomaly
58.83495°
Mean motion
3.31594 °/min
Orbital period
108.57 mins
BSTAR
0.00034167
Loading maneuver chart data...
Computing Atmospheric mass density...

Documentation

Showing up to 5 results
|